Flag for Canada Weather past 2 weeks in Kugluktuk, Nunavut Territory, Canada

Now
25 °F

Overcast.


Feels Like: 9 °F
Forecast: 18 / 27 °F
Wind: 25 mph from East

Location: Coppermine

Current Time: Oct 21, 2014 at 9:36:16 AM

Latest Report: Oct 21, 2014 at 9:00 AM


Visibility: 2 mi

Pressure: 29.52 "Hg

Humidity: 93%

Dew point: 23 °F

Location of KugluktukLocation

Historic Weather in Kugluktuk — Graph

°F

Kugluktuk temperature yesterday

Maximum temperature yesterday: 28 °F (at 8:00 AM)
Minimum temperature yesterday: 25 °F (at 12:00 AM)
Average temperature yesterday: 27 °F

Past Weeks' High & Low Weather Summary

 TemperatureHumidityPressure
High36 °F (Oct 10, 3:00 PM)100% (Oct 7, 6:00 AM)30.34 "Hg (Oct 7, 6:00 AM)
Low10 °F (Oct 16, 4:00 AM)58% (Oct 6, 11:00 AM)29.39 "Hg (Oct 20, 9:00 PM)
Average26 °F86%29.90 "Hg
* Reported Oct 6 8:00 AM — Oct 21 8:00 AM, Kugluktuk, Weather by CustomWeather, © 2014

Note: Actual official high and low records may vary slightly from our data, if they occured in-between our weather recording intervals... More about our weather records

Advertising

Kugluktuk weather history for previous 24 hours

 ConditionsComfort  
Time TempWeatherWind HumidityBarometerVisibility
8:00 AM
Oct 21
25 °FLight snow. Mostly cloudy.25 mph93%29.52 "Hg2 mi
7:00 AM25 °FLight snow. Mostly cloudy.24 mph86%29.50 "Hg2 mi
6:00 AM25 °FLight snow. Mostly cloudy.23 mph93%29.49 "Hg2 mi
5:00 AM27 °FLight snow. Mostly cloudy.25 mph80%29.47 "Hg2 mi
4:00 AM25 °FLight snow. Mostly cloudy.28 mph86%29.46 "Hg1 mi
3:00 AM25 °FLight snow. Overcast.30 mph93%29.44 "Hg1 mi
2:00 AM27 °FLight snow. Overcast.26 mph86%29.44 "Hg1 mi
1:00 AM27 °FLight snow. Overcast.29 mph86%29.42 "Hg1 mi
12:00 AM27 °FLight snow. Overcast.30 mph86%29.41 "Hg1 mi
11:00 PM
Oct 20
27 °FLight snow. Overcast.36 mph86%29.39 "Hg1 mi
10:00 PM27 °FLight snow. Overcast.35 mph93%29.39 "Hg1 mi
9:00 PM27 °FLight snow. Overcast.29 mph93%29.39 "Hg1 mi
8:00 PM27 °FOvercast.31 mph93%29.40 "Hg1 mi
7:47 PMN/AOvercast.32 mphN/AN/A1 mi
7:00 PM27 °FBlizzard. Ice fog.31 mph93%29.41 "Hg0 mi
6:00 PM27 °FBlizzard. Ice fog.43 mph93%29.42 "Hg0 mi
5:00 PM27 °FBlizzard. Ice fog.36 mph93%29.44 "Hg0 mi
4:00 PM27 °FBlizzard. Ice fog.33 mph93%29.46 "Hg0 mi
3:00 PM27 °FBlizzard. Ice fog.28 mph100%29.49 "Hg0 mi
2:00 PM27 °FBlizzard. Ice fog.31 mph93%29.54 "Hg0 mi
1:00 PM27 °FLight snow. Overcast.25 mph93%29.58 "Hg1 mi
12:00 PM28 °FLight snow. Low clouds.26 mph86%29.61 "Hg8 mi
11:46 AMN/ALight snow.29 mphN/AN/A8 mi
11:00 AM28 °FLow clouds.25 mph86%29.65 "Hg15 mi
10:00 AM28 °FLow clouds.24 mph80%29.68 "Hg15 mi
9:00 AM28 °FLight snow. Mostly cloudy.24 mph80%29.69 "Hg15 mi
Weather by CustomWeather, © 2014

See weather overviewHow to use our weather pages